IRIDIUM 47 DEB, 40254

Orbit data source: Space-Track

IRIDIUM 47 DEB, 40254 is space debris in LEO originally from a launch on Sat, 20 Dec 1997 UTC launched from the Air Force Western Test Range (AFWTR). Debris objects in space refer to the collection of defunct objects orbiting the Earth. Examples of debris include non-operational satellites, rocket bodies, and fragments generated from explosions, collisions, or faulty payload assembly.

Loading next visibility...
Identifier
40254, 1997-082P
Orbit
LEO
Country
Flag of USUS
Related business
Manufacturer
Unknown
Mission
Spacecraft
Bus & Motor
Unknown
Mass
Unknown
Launch date (UTC)
1997-12-20 (28 years ago)
Launch vehicle
Unknown
Launch site
Air Force Western Test Range (AFWTR)
Object type
Payload
Rocket body
Debris
Shape & HBR
Unknown
Radar Cross Section
Small (<0.1 m²)

Expand to show TLE details & history
Last TLE update: 6 days ago

TLE from 6 days ago
0 IRIDIUM 47 DEB
1 40254U 97082P   25255.55080823  .00013559  00000-0  31420-2 0  9996
2 40254  85.9953 352.6762 0096348  15.9467 344.4733 14.52139526561850
Epoch: 2025-09-12T13:13Z
TLE epoch observation values (Epoch: 2025-09-12T13:13:09.831Z)
Latitude
-0.00006°
Longitude
162.58833°
Altitude
655.893 km
Speed
7.564 km/s
True Right ascension
23h 30m 42s
True Declination
0° 00' 00"
Sunlit
Object was in full shadow at epoch
Visualization orbit readout
Latitude
Unknown
Longitude
Unknown
Altitude
Unknown
Speed
Unknown
Apparent Right ascension
Unknown
Apparent Declination
Unknown
Sunlit
N/A
Visualization observer readout
Local Sidereal Time
11:07:54
Azimuth
Unknown
Elevation
Unknown
Doppler factor
Unknown
Orbital elements
Apogee altitude
783.963 km
Perigee altitude
647.27 km
Semi-major axis
7,093.754 km
Eccentricity
0.00963
Inclination
85.9953°
RAAN
352.6762°
Arg. of periapsis
15.9467°
True anomaly
344.17429°
Mean anomaly
344.4733°
Eccentric anomaly
344.32414°
Mean motion
3.6327 °/min
Orbital period
99.1 mins
BSTAR
0.003142
Loading maneuver chart data...
Computing Atmospheric mass density...

Documentation

Showing up to 5 results
|